This is the latest recevied weather packets stored in our database for station/object KB2AHZ. If no packets are shown the sender has not sent any weather packets the latest 10 day(s).
| Time | Temp. | Humidity | Pressure | Rain* | Wind** | Luminosity | Snow |
|---|---|---|---|---|---|---|---|
| 1777199283 | 12.78° C | 99% | 1013.7 hPa | 0 mm | - | 1 W/m² | - |
| 1777198982 | 12.78° C | 99% | 1013.7 hPa | 1.78 mm | - | 0 W/m² | - |
| 1777198679 | 12.78° C | 99% | 1013.3 hPa | 3.05 mm | - | 0 W/m² | - |
| 1777198377 | 12.78° C | 99% | 1013.3 hPa | 1.27 mm | - | 0 W/m² | - |
| 1777198073 | 12.78° C | 99% | 1013.3 hPa | 0.51 mm | - | 0 W/m² | - |
| 1777197768 | 12.78° C | 99% | 1013 hPa | 1.27 mm | - | 0 W/m² | - |
| 1777197463 | 13.33° C | 99% | 1013.2 hPa | 0.51 mm | - | 0 W/m² | - |
| 1777197160 | 13.33° C | 99% | 1013 hPa | 0 mm | - | 0 W/m² | - |
| 1777196855 | 13.33° C | 99% | 1013 hPa | 0 mm | - | 0 W/m² | - |
| 1777196547 | 13.33° C | 99% | 1013 hPa | 0 mm | - | 0 W/m² | - |
| 1777196244 | 13.33° C | 99% | 1013 hPa | 0 mm | - | 0 W/m² | - |
| 1777195941 | 13.89° C | 99% | 1012.9 hPa | 0 mm | - | 0 W/m² | - |
| 1777195641 | 13.89° C | 99% | 1012.9 hPa | 0 mm | - | 0 W/m² | - |
| 1777195337 | 13.89° C | 99% | 1012.7 hPa | 0 mm | - | 0 W/m² | - |
| 1777195034 | 13.89° C | 99% | 1012.8 hPa | 0 mm | - | 0 W/m² | - |
| 1777194728 | 13.89° C | 99% | 1012.3 hPa | 0 mm | - | 0 W/m² | - |
| 1777194425 | 14.44° C | 99% | 1012.5 hPa | 0 mm | - | 0 W/m² | - |
| 1777194121 | 14.44° C | 99% | 1012.5 hPa | 0 mm | - | 0 W/m² | - |
| 1777193817 | 14.44° C | 99% | 1012.5 hPa | 1.27 mm | - | 0 W/m² | - |
| 1777193510 | 15° C | 99% | 1012.2 hPa | 0.51 mm | - | 0 W/m² | - |
| 1777193205 | 15° C | 99% | 1012.2 hPa | 0.51 mm | - | 0 W/m² | - |
| 1777192900 | 15° C | 99% | 1011.9 hPa | 0.51 mm | - | 0 W/m² | - |
| 1777192597 | 15° C | 99% | 1011.9 hPa | 0 mm | - | 0 W/m² | - |
| 1777192294 | 15.56° C | 99% | 1011.7 hPa | 0 mm | - | 0 W/m² | - |
| 1777191991 | 15.56° C | 99% | 1011.7 hPa | 0 mm | - | 0 W/m² | - |
* Rain latest hour (hover to see other rain measurements)
** Current wind speed in m/s (hover to see current wind gust speed)